Regional Weather Roundup
Issued by NWS

Home | Current Version | Previous Version | Text Only | Print | Product List | Glossary On
Versions: 1 2 3 4 5 6 7 8 9 10 11 12 13 14 15 16 17 18 19 20 21 22 23 24 25 26 27 28 29 30 31 32 33 34 35 36 37 38 39 40 41 42 43 44 45 46 47 48 49 50
000
ASUS44 KEWX 300010
RWRTX
SOUTH TEXAS REGIONAL WEATHER ROUNDUP
NATIONAL WEATHER SERVICE AUSTIN/SAN ANTONIO TX
700 PM CDT SAT AUG 29 2015

NOTE: "FAIR" INDICATED FEW OR NO CLOUDS BELOW 12,000 FEET WITH NO
SIGNIFICANT WEATHER AND/OR OBSTRUCTIONS TO VISIBILITY.

* - THESE STATIONS ARE NOT NWS OR FAA STATIONS...AND ARE NOT SUBJECT
    TO NWS AND FAA QUALITY CONTROL.

TXZ171-172-183>190-300100-
TEXAS HILL COUNTRY AND EDWARDS PLATEAU

CITY           SKY/WX    TMP DP  RH WIND       PRES   REMARKS
JUNCTION       CLOUDY    88  57  34 NE13      30.01S
6HR MIN TEMP:  86; 6HR MAX TEMP:  94;

*LLANO         CLOUDY    90  57  33 N10       30.01S
BURNET         CLOUDY    90  58  33 E5        30.01S
6HR MIN TEMP:  88; 6HR MAX TEMP:  95;

*HORSESHOE BAY CLOUDY    91  57  30 SE3       29.98S HX  90
6HR MIN TEMP:  90; 6HR MAX TEMP:  97;

*KERRVILLE     SUNNY     91  57  32 SE5       30.00S HX  90
6HR MIN TEMP:  84; 6HR MAX TEMP:  93;

*FREDERICKSBRG CLOUDY    89  52  28 CALM      30.00S
6HR MIN TEMP:  86; 6HR MAX TEMP:  92;

*ROCKSPRINGS   CLOUDY    88  55  33 CALM      30.05S
*BOERNE STAGE  MOSUNNY   88  55  33 SE6       30.01R
*CASTROVILLE   MOSUNNY   92  52  25 E6        29.97S
HONDO          SUNNY     91  58  32 E10       29.98S HX  90
6HR MIN TEMP:  87; 6HR MAX TEMP:  95;

*UVALDE        SUNNY     92  56  30 E6        29.95F HX  90
6HR MIN TEMP:  87; 6HR MAX TEMP:  94;

DEL RIO        MOSUNNY   95  53  24 E8        29.92F HX  92
6HR MIN TEMP:  89; 6HR MAX TEMP:  98;

LAUGHLIN AFB   MOSUNNY   95  55  25 SE9       29.93F HX  93
6HR MIN TEMP:  89; 6HR MAX TEMP:  97;

CARRIZO SPRGS  SUNNY     95  52  23 E7        29.91F HX  92
*EAGLE PASS    CLEAR     93  55  27 E6        29.94R HX  91
$$

TXZ173-191>194-202-209-217>225-228-300100-
CENTRAL AND SOUTH CENTRAL TEXAS

CITY           SKY/WX    TMP DP  RH WIND       PRES   REMARKS
GEORGETOWN     NOT AVBL
AUSTIN/BERGSTM PTSUNNY   91  61  36 SE7       29.95S HX  91
6HR MIN TEMP:  87; 6HR MAX TEMP:  94;

AUSTIN/MABRY   MOSUNNY   90  60  36 SE5       29.97S
6HR MIN TEMP:  89; 6HR MAX TEMP:  95;

*AUSTIN/EXEC   MOSUNNY   90  63  40 CALM      29.97S HX  90
*LAGO VISTA    MOSUNNY   89  57  34 SE6       30.00S
6HR MIN TEMP:  88; 6HR MAX TEMP:  95;

SAN MARCOS     SUNNY     90  63  40 S9        29.96F HX  90
NEW BRAUNFELS  MOSUNNY   92  61  35 E10       29.95S HX  92
6HR MIN TEMP:  89; 6HR MAX TEMP:  97;

RANDOLPH AFB   MOSUNNY   91  59  34 SE10      29.96S HX  90
6HR MIN TEMP:  86; 6HR MAX TEMP:  94;

PT SAN ANTONIO MOSUNNY   92  58  31 E7        29.95S HX  91
6HR MIN TEMP:  87; 6HR MAX TEMP:  94;

SAN ANTONIO    MOSUNNY   92  59  33 SE12      29.96S HX  91
6HR MIN TEMP:  87; 6HR MAX TEMP:  95;

STINSON FIELD  SUNNY     92  59  33 E6        29.93F HX  91
6HR MIN TEMP:  87; 6HR MAX TEMP:  96;

*PLEASANTON    SUNNY     94  55  26 E8        29.94S HX  92
6HR MIN TEMP:  88; 6HR MAX TEMP:  97;

*LA GRANGE     SUNNY     91  64  41 CALM      29.95R HX  92
6HR MIN TEMP:  90; 6HR MAX TEMP:  94;

*GIDDINGS      SUNNY     87  64  46 E9        30.01R
6HR MIN TEMP:  87; 6HR MAX TEMP:  93;

*GONZALES      SUNNY     91  63  38 E6        29.95S HX  92
6HR MIN TEMP:  89; 6HR MAX TEMP:  95;

$$

TXZ163>164-176>182-195>201-210>213-226-227-235-300100-
SOUTHEAST TEXAS

CITY           SKY/WX    TMP DP  RH WIND       PRES   REMARKS
COLLEGE STN    SUNNY     88  65  46 S12       29.97S HX  90
6HR MIN TEMP:  86; 6HR MAX TEMP:  91;

*BRYAN         SUNNY     88  66  47 S7        29.98R HX  91
6HR MIN TEMP:  88; 6HR MAX TEMP:  94;

*CALDWELL      SUNNY     86  64  48 SE8       30.00S
*CROCKETT      PTCLDY    91  63  38 S8        29.98S HX  92
*BRENHAM       SUNNY     88  65  47 SE5       29.99S
6HR MIN TEMP:  87; 6HR MAX TEMP:  91;

HUNTSVILLE     PTCLDY    90  62  39 VRB6      29.97S HX  90
6HR MIN TEMP:  88; 6HR MAX TEMP:  94;

CONROE         PTCLDY    86  62  44 SE7       29.98S
6HR MIN TEMP:  86; 6HR MAX TEMP:  91;

HOUSTON BUSH   PTCLDY    84  64  50 SE9       29.97F
6HR MIN TEMP:  84; 6HR MAX TEMP:  90;

HOUSTON HOBBY  MOCLDY    84  62  47 SE7       29.97S
6HR MIN TEMP:  84; 6HR MAX TEMP:  90;

*HOUSTON SW AP NOT AVBL
PEARLAND       CLEAR     86  61  42 SE8       29.99S
6HR MIN TEMP:  86; 6HR MAX TEMP:  92;

HOUSTON HOOKS  CLEAR     86  65  49 SE9       29.97S
6HR MIN TEMP:  86; 6HR MAX TEMP:  92;

ELLINGTON FLD  PTCLDY    84  64  51 SE6       29.99S
SUGAR LAND     CLEAR     85  66  53 SE10      29.97R
6HR MIN TEMP:  85; 6HR MAX TEMP:  90;

*HOUSTON EXEC  CLEAR     86  66  51 SE3       29.98S
*CLEVELAND MUN CLEAR     85  68  56 S6        29.98F
6HR MIN TEMP:  85; 6HR MAX TEMP:  92;

*WHARTON       PTCLDY    85  66  52 SE10      29.98R
6HR MIN TEMP:  85; 6HR MAX TEMP:  91;

*COLUMBUS      FAIR      90  60  36 SE6       29.96S
*EAGLE LAKE    CLEAR     89  64  44 SE7       29.96S HX  90
6HR MIN TEMP:  87; 6HR MAX TEMP:  92;

$$

TXZ214>216-236>238-300100-
THE UPPER TEXAS COAST

CITY           SKY/WX    TMP DP  RH WIND       PRES   REMARKS
*ORANGE        CLEAR     84  60  44 CALM      30.00S
6HR MIN TEMP:  84; 6HR MAX TEMP:  89;

PORT ARTHUR    CLEAR     83  66  56 S7        29.98S
6HR MIN TEMP:  83; 6HR MAX TEMP:  91;

GALVESTON      CLEAR     85  64  49 SE9       29.99S
6HR MIN TEMP:  85; 6HR MAX TEMP:  88;

ANGLETON       PTCLDY    84  67  56 SE7       29.98S
6HR MIN TEMP:  84; 6HR MAX TEMP:  90;

*BAY CITY      PTCLDY    85  70  61 S6        29.97S
PALACIOS       MOSUNNY   84  68  58 SE12      29.97S
6HR MIN TEMP:  84; 6HR MAX TEMP:  89;

$$

TXZ229>234-239>247-300100-
TEXAS COASTAL BEND AND RIO GRANDE PLAINS

CITY           SKY/WX    TMP DP  RH WIND       PRES   REMARKS
VICTORIA       MOSUNNY   87  64  46 MISG      29.96S
6HR MIN TEMP:  87; 6HR MAX TEMP:  93;

*BEEVILLE      MOSUNNY   90  67  46 E7        29.94S HX  93
6HR MIN TEMP:  88; 6HR MAX TEMP:  94;

ROCKPORT       SUNNY     86  65  49 SE13      29.95S
6HR MIN TEMP:  86; 6HR MAX TEMP:  90;

*PORT ARANSAS  MOSUNNY   85  66  53 E8        29.95S
6HR MIN TEMP:  85; 6HR MAX TEMP:  88;

*PORT LAVACA   MOSUNNY   85  67  56 SE10      29.97R
6HR MIN TEMP:  85; 6HR MAX TEMP:  89;

*INGLESIDE     SUNNY     87  65  48 E13       29.95S
CORPUS CHRISTI PTSUNNY   86  65  49 E14       29.95S
6HR MIN TEMP:  86; 6HR MAX TEMP:  92;

CORPUS NAS     SUNNY     84  64  50 E13       29.95S
6HR MIN TEMP:  84; 6HR MAX TEMP:  89;

*ROBSTOWN      SUNNY     89  61  38 E12       29.95S
6HR MIN TEMP:  89; 6HR MAX TEMP:  95;

ALICE          SUNNY     89  62  40 E14       29.93S
6HR MIN TEMP:  89; 6HR MAX TEMP:  96;

KINGSVILLE NAS SUNNY     88  67  49 E12       29.94S HX  91
6HR MIN TEMP:  88; 6HR MAX TEMP:  96;

COTULLA        SUNNY     95  54  25 E12       29.92F HX  93
6HR MIN TEMP:  90; 6HR MAX TEMP:  98;

*FAITH RANCH     N/A     97  50  20 E10G18    29.92S HX  94
LAREDO         PTSUNNY   98  51  20 SE10      29.92S HX  95
6HR MIN TEMP:  91; 6HR MAX TEMP: 101;

$$

TXZ248>255-300100-
DEEP SOUTH TEXAS

CITY           SKY/WX    TMP DP  RH WIND       PRES   REMARKS
BROWNSVILLE    MOSUNNY   85  71  63 E10G20    29.94R HX  90
6HR MIN TEMP:  85; 6HR MAX TEMP:  93;

PORT ISABEL    SUNNY     86  72  62 E15       29.93F HX  92
6HR MIN TEMP:  86; 6HR MAX TEMP:  91;

*SOUTH PADRE   SUNNY     84  73  70 E14       29.94S HX  91



USA.gov is the U.S. government's official web portal to all federal, state and local government web resources and services.